Regional Weather Roundup
Issued by NWS Newport/Morehead, NC

Current Version | Previous Version | Graphics & Text | Print | Product List | Glossary On
Versions: 1 2 3 4 5 6 7 8 9 10 11 12 13 14 15 16 17 18 19 20 21 22 23 24 25 26 27 28 29 30 31 32 33 34 35 36 37 38 39 40 41 42 43 44 45 46 47 48 49 50
000 ASUS42 KMHX 010224 RWRMHX WEATHER ROUNDUP FOR EASTERN NORTH CAROLINA NATIONAL WEATHER SERVICE NEWPORT/MOREHEAD CITY NC 900 PM EST SAT FEB 28 2015 NOTE: "FAIR" INDICATES FEW OR NO CLOUDS BELOW 12,000 FEET WITH NO SIGNIFICANT WEATHER AND/OR OBSTRUCTIONS TO VISIBILITY NCZ015>017-031-032-045>047-102-103-010300- NORTH COAST CITY SKY/WX TMP DP RH WIND PRES REMARKS EDENTON CLEAR 29 22 74 NE5 30.75S ELIZABETH CITY CLEAR 29 20 69 N9 30.76S KITTY HAWK CLEAR 33 27 79 N6 30.72S MANTEO CLEAR 34 27 75 N12 30.73F $$ NCZ045>047-081-094-103-104-010300- CENTRAL COAST CITY SKY/WX TMP DP RH WIND PRES REMARKS FRISCO PTCLDY 35 30 82 NE12G20 30.70S SWANQUARTER N/A N/A N/A N/A NE9 30.68S $$ NCZ095-097-098-100-101-010300- SOUTHERN COAST CITY SKY/WX TMP DP RH WIND PRES REMARKS BEAUFORT CLOUDY 34 26 72 N10G21 30.69S CEDAR ISLAND N/A 34 N/A N/A VRB20 30.74S JACKSONVILLE MOCLDY 37 20 50 NE10 30.69S PINEY ISLAND N/A N/A N/A N/A MISG 30.70S WILMINGTON CLOUDY 40 23 50 NE10 30.68R $$ NCZ011>013-027>030-043-044-078>080-089-090>093-098-010300- COASTAL PLAIN CITY SKY/WX TMP DP RH WIND PRES REMARKS AHOSKIE PTCLDY 29 13 52 NE3 30.76S CLINTON PTCLDY 36 25 64 NE5 30.69S ELIZABETHTOWN MOCLDY 38 23 53 NE3 30.68R GOLDSBORO MOCLDY 35 28 76 NE8 30.69S GREENVILLE PTCLDY 32 21 64 E6 30.72S HAVELOCK CLOUDY 36 21 54 NE15 30.71S KENANSVILLE MOCLDY 35 21 58 CALM 30.70S KINSTON PTCLDY 33 22 64 NE9 30.72S NEW BERN CLOUDY 34 20 56 NE12 30.72F RICHLANDS PTCLDY 36 19 51 NE10 30.70S ROCKY MOUNT CLEAR 31 17 56 NE5 30.72S WASHINGTON CLEAR 29 20 69 NE6 30.73F WHITEVILLE CLOUDY 40 24 52 N6 30.66R $$ AMZ130-135-150-152-154-156-158-170-250-252-270-ANZ085-086-088-633-658-670-010300- MARINE OBSERVATIONS STATION/POSITION TIME TEMP WIND PRES WAVE SWELL AIR SEA DIR/SP/G HT/PER HT/PER (UTC) (F) (DEG/KT/KT) (MB) (FT/S) (FT/S) CHESAPEAKE LIGHT 0200 30 50/ 13/ 14 1042.1 64 E VA BEACH 0150 42 58 50/ 10/ 16 1040.2 4/10 3/10 DUCK 0100 33 34 20/ 15/ 17 1040.1 2 E DUCK 0111 34 N/A 4/ 5 2/11 10 NE DUCK 0122 37 N/A 4/11 2/11 OREGON INLET 0100 35 38 360/ 11/ 15 1040.3 HATTERAS CG 0112 36 40 20/ 18/ 21 1039.6 CAPE LOOKOUT 0200 36 20/ 17/ 22 1038.7 BEAUFORT LAB 0200 35 41 20/ 13/ 18 1038.3 27 SE WRIGHTSVLE NOT AVBL 5 SE WRIGHTSVLE NOT AVBL 225 S CAPE HAT 0150 65 70 60/ 23/ 29 1033.9 12/ 8 41 SE CHARLESTON 0150 56 68 40/ 27/ 35 1033.1 10/ 8 5/16 $$

USA.gov is the U.S. government's official web portal to all federal, state and local government web resources and services.